Time,TemperatureF,DewpointF,PressureIn,WindDirection,WindDirectionDegrees,WindSpeedMPH,WindSpeedGustMPH,Humidity,HourlyPrecipIn,Conditions,Clouds,dailyrainin,SoftwareType,DateUTC
2013-03-16 00:00:00,39.8,26.2,29.72,WSW,250,0.0,0.0,58,0.00,CLR,CLR,0.00,WeatherDisplay:10.36,2013-03-16 04:00:00,
2013-03-16 00:01:00,39.8,26.2,29.72,WSW,250,1.0,1.0,58,0.00,CLR,CLR,0.00,WeatherDisplay:10.36,2013-03-16 04:01:00,
2013-03-16 00:06:00,39.6,26.4,29.72,WSW,250,0.0,0.0,59,0.00,CLR,CLR,0.00,WeatherDisplay:10.36,2013-03-16 04:06:00,
2013-03-16 00:11:00,39.5,25.9,29.72,NW,305,3.5,3.5,58,0.00,CLR,CLR,0.00,WeatherDisplay:10.36,2013-03-16 04:11:00,
2013-03-16 00:16:00,39.3,26.2,29.72,SW,232,1.2,0.0,59,0.00,CLR,CLR,0.00,WeatherDisplay:10.36,2013-03-16 04:16:00,
2013-03-16 00:21:00,39.3,25.7,29.72,West,262,1.2,1.2,58,0.00,CLR,CLR,0.00,WeatherDisplay:10.36,2013-03-16 04:21:00,
2013-03-16 00:26:00,39.2,25.6,29.72,West,262,0.0,0.0,58,0.00,CLR,CLR,0.00,WeatherDisplay:10.36,2013-03-16 04:26:00,
2013-03-16 00:31:00,38.9,25.8,29.72,West,262,1.2,0.0,59,0.00,CLR,CLR,0.00,WeatherDisplay:10.36,2013-03-16 04:31:00,
2013-03-16 00:37:00,38.6,25.5,29.71,West,262,1.2,1.2,59,0.00,CLR,CLR,0.00,WeatherDisplay:10.36,2013-03-16 04:37:00,
2013-03-16 00:42:00,38.5,25.0,29.71,WNW,295,3.5,3.5,58,0.00,CLR,CLR,0.00,WeatherDisplay:10.36,2013-03-16 04:42:00,
2013-03-16 00:47:00,38.6,24.7,29.71,WSW,249,3.5,3.5,57,0.00,CLR,CLR,0.00,WeatherDisplay:10.36,2013-03-16 04:47:00,
2013-03-16 00:52:00,38.5,24.6,29.71,WSW,252,2.3,2.3,57,0.00,CLR,CLR,0.00,WeatherDisplay:10.36,2013-03-16 04:52:00,
2013-03-16 00:57:00,38.3,24.4,29.71,WSW,252,0.0,0.0,57,0.00,CLR,CLR,0.00,WeatherDisplay:10.36,2013-03-16 04:57:00,
2013-03-16 01:02:00,38.2,24.3,29.71,SW,219,1.2,1.2,57,0.00,CLR,CLR,0.00,WeatherDisplay:10.36,2013-03-16 05:02:00,
2013-03-16 01:07:00,38.2,24.3,29.71,West,266,3.5,3.5,57,0.00,CLR,CLR,0.00,WeatherDisplay:10.36,2013-03-16 05:07:00,
2013-03-16 01:12:00,38.2,23.9,29.71,NNW,345,2.3,2.3,56,0.00,CLR,CLR,0.00,WeatherDisplay:10.36,2013-03-16 05:12:00,
2013-03-16 01:18:00,38.0,23.3,29.71,NNW,328,4.6,4.6,55,0.00,CLR,CLR,0.00,WeatherDisplay:10.36,2013-03-16 05:18:00,
2013-03-16 01:23:00,38.0,23.3,29.71,NNW,328,0.0,0.0,55,0.00,CLR,CLR,0.00,WeatherDisplay:10.36,2013-03-16 05:23:00,
2013-03-16 01:28:00,37.9,23.2,29.71,NNW,328,1.2,1.2,55,0.00,CLR,CLR,0.00,WeatherDisplay:10.36,2013-03-16 05:28:00,
2013-03-16 01:33:00,37.8,22.6,29.71,NW,326,3.0,3.0,54,0.00,CLR,CLR,0.00,WeatherDisplay:10.36,2013-03-16 05:33:00,
2013-03-16 01:38:00,37.8,22.6,29.71,NW,316,3.5,3.5,54,0.00,CLR,CLR,0.00,WeatherDisplay:10.36,2013-03-16 05:38:00,
2013-03-16 01:43:00,37.8,22.2,29.71,NW,322,1.2,0.0,53,0.00,CLR,CLR,0.00,WeatherDisplay:10.36,2013-03-16 05:43:00,
2013-03-16 01:48:00,37.6,22.4,29.71,WSW,241,1.2,1.2,54,0.00,CLR,CLR,0.00,WeatherDisplay:10.36,2013-03-16 05:48:00,
2013-03-16 01:53:00,37.5,21.9,29.71,WNW,285,1.2,0.0,53,0.00,CLR,CLR,0.00,WeatherDisplay:10.36,2013-03-16 05:53:00,
2013-03-16 01:58:00,37.5,21.9,29.71,WNW,284,1.2,0.0,53,0.00,CLR,CLR,0.00,WeatherDisplay:10.36,2013-03-16 05:58:00,
2013-03-16 02:03:00,37.3,21.3,29.71,SW,229,2.3,2.3,52,0.00,CLR,CLR,0.00,WeatherDisplay:10.36,2013-03-16 06:03:00,
2013-03-16 02:09:00,37.3,21.3,29.71,WNW,294,0.0,0.0,52,0.00,CLR,CLR,0.00,WeatherDisplay:10.36,2013-03-16 06:09:00,
2013-03-16 02:14:00,37.2,21.2,29.71,WNW,295,2.3,0.0,52,0.00,CLR,CLR,0.00,WeatherDisplay:10.36,2013-03-16 06:14:00,
2013-03-16 02:19:00,37.0,21.0,29.71,WNW,297,0.0,0.0,52,0.00,CLR,CLR,0.00,WeatherDisplay:10.36,2013-03-16 06:19:00,
2013-03-16 02:24:00,37.0,21.0,29.71,SSW,194,1.2,1.2,52,0.00,CLR,CLR,0.00,WeatherDisplay:10.36,2013-03-16 06:24:00,
2013-03-16 02:29:00,36.9,20.9,29.71,SSW,205,0.0,0.0,52,0.00,CLR,CLR,0.00,WeatherDisplay:10.36,2013-03-16 06:29:00,
2013-03-16 02:35:00,36.8,21.3,29.72,SSW,205,0.0,0.0,53,0.00,CLR,CLR,0.00,WeatherDisplay:10.36,2013-03-16 06:35:00,
2013-03-16 02:40:00,36.6,20.6,29.72,SSW,205,0.0,0.0,52,0.00,CLR,CLR,0.00,WeatherDisplay:10.36,2013-03-16 06:40:00,
2013-03-16 02:45:00,36.5,20.5,29.73,SW,216,2.3,2.3,52,0.00,CLR,CLR,0.00,WeatherDisplay:10.36,2013-03-16 06:45:00,
2013-03-16 02:50:00,36.5,20.5,29.73,South,170,0.0,0.0,52,0.00,CLR,CLR,0.00,WeatherDisplay:10.36,2013-03-16 06:50:00,
2013-03-16 02:55:00,36.5,20.5,29.73,South,191,2.3,2.3,52,0.00,CLR,CLR,0.00,WeatherDisplay:10.36,2013-03-16 06:55:00,
2013-03-16 03:00:00,36.5,20.5,29.73,South,191,2.3,0.0,52,0.00,CLR,CLR,0.00,WeatherDisplay:10.36,2013-03-16 07:00:00,
2013-03-16 03:05:00,36.3,20.8,29.73,South,191,0.0,0.0,53,0.00,CLR,CLR,0.00,WeatherDisplay:10.36,2013-03-16 07:05:00,
2013-03-16 03:10:00,36.0,20.5,29.73,South,191,0.0,0.0,53,0.00,CLR,CLR,0.00,WeatherDisplay:10.36,2013-03-16 07:10:00,
2013-03-16 03:15:00,35.9,20.4,29.73,SSW,203,0.0,0.0,53,0.00,CLR,CLR,0.00,WeatherDisplay:10.36,2013-03-16 07:15:00,
2013-03-16 03:20:00,36.0,20.5,29.73,SSW,203,0.0,0.0,53,0.00,CLR,CLR,0.00,WeatherDisplay:10.36,2013-03-16 07:20:00,
2013-03-16 03:25:00,36.0,20.1,29.73,SW,233,0.0,0.0,52,0.00,CLR,CLR,0.00,WeatherDisplay:10.36,2013-03-16 07:25:00,
2013-03-16 03:30:00,36.0,20.5,29.73,SW,233,0.0,0.0,53,0.00,CLR,CLR,0.00,WeatherDisplay:10.36,2013-03-16 07:30:00,
2013-03-16 03:35:00,35.9,20.4,29.73,WNW,295,3.5,3.5,53,0.00,CLR,CLR,0.00,WeatherDisplay:10.36,2013-03-16 07:35:00,
2013-03-16 03:41:00,36.0,20.1,29.73,West,276,0.0,0.0,52,0.00,CLR,CLR,0.00,WeatherDisplay:10.36,2013-03-16 07:41:00,
2013-03-16 03:46:00,36.0,20.1,29.73,West,276,0.0,0.0,52,0.00,CLR,CLR,0.00,WeatherDisplay:10.36,2013-03-16 07:46:00,
2013-03-16 03:51:00,35.9,20.4,29.73,West,276,0.0,0.0,53,0.00,CLR,CLR,0.00,WeatherDisplay:10.36,2013-03-16 07:51:00,
2013-03-16 03:56:00,35.9,20.4,29.73,West,276,1.2,0.0,53,0.00,CLR,CLR,0.00,WeatherDisplay:10.36,2013-03-16 07:56:00,
2013-03-16 04:02:00,35.8,20.3,29.73,West,276,0.0,0.0,53,0.00,CLR,CLR,0.00,WeatherDisplay:10.36,2013-03-16 08:02:00,
2013-03-16 04:07:00,35.6,20.6,29.73,West,276,0.0,0.0,54,0.00,CLR,CLR,0.00,WeatherDisplay:10.36,2013-03-16 08:07:00,
2013-03-16 04:12:00,35.5,20.5,29.73,West,276,0.0,0.0,54,0.00,CLR,CLR,0.00,WeatherDisplay:10.36,2013-03-16 08:12:00,
2013-03-16 04:17:00,35.2,20.6,29.73,West,276,0.0,0.0,55,0.00,CLR,CLR,0.00,WeatherDisplay:10.36,2013-03-16 08:17:00,
2013-03-16 04:22:00,34.9,20.8,29.73,West,276,0.0,0.0,56,0.00,CLR,CLR,0.00,WeatherDisplay:10.36,2013-03-16 08:22:00,
2013-03-16 04:27:00,34.6,20.5,29.73,West,276,0.0,0.0,56,0.00,CLR,CLR,0.00,WeatherDisplay:10.36,2013-03-16 08:27:00,
2013-03-16 04:33:00,34.3,20.6,29.73,West,276,0.0,0.0,57,0.00,CLR,CLR,0.00,WeatherDisplay:10.36,2013-03-16 08:33:00,
2013-03-16 04:38:00,34.0,20.3,29.74,West,276,0.0,0.0,57,0.00,CLR,CLR,0.00,WeatherDisplay:10.36,2013-03-16 08:38:00,
2013-03-16 04:43:00,33.7,20.5,29.74,West,276,0.0,0.0,58,0.00,CLR,CLR,0.00,WeatherDisplay:10.36,2013-03-16 08:43:00,
2013-03-16 04:48:00,33.5,20.3,29.74,WNW,303,1.2,0.0,58,0.00,CLR,CLR,0.00,WeatherDisplay:10.36,2013-03-16 08:48:00,
2013-03-16 04:53:00,33.5,20.3,29.74,NW,304,0.0,0.0,58,0.00,CLR,CLR,0.00,WeatherDisplay:10.36,2013-03-16 08:53:00,
2013-03-16 04:58:00,33.5,20.3,29.74,NW,304,0.0,0.0,58,0.00,CLR,CLR,0.00,WeatherDisplay:10.36,2013-03-16 08:58:00,
2013-03-16 05:03:00,33.7,20.1,29.74,NW,304,0.0,0.0,57,0.00,CLR,CLR,0.00,WeatherDisplay:10.36,2013-03-16 09:03:00,
2013-03-16 05:08:00,33.8,20.2,29.74,NW,311,0.0,0.0,57,0.00,CLR,CLR,0.00,WeatherDisplay:10.36,2013-03-16 09:08:00,
2013-03-16 05:13:00,34.0,19.9,29.74,NW,304,0.0,0.0,56,0.00,CLR,CLR,0.00,WeatherDisplay:10.36,2013-03-16 09:13:00,
2013-03-16 05:18:00,34.0,19.5,29.75,NW,305,2.3,2.3,55,0.00,CLR,CLR,0.00,WeatherDisplay:10.36,2013-03-16 09:18:00,
2013-03-16 05:23:00,34.1,19.2,29.75,NW,307,2.3,2.3,54,0.00,CLR,CLR,0.00,WeatherDisplay:10.36,2013-03-16 09:23:00,
2013-03-16 05:28:00,34.3,19.4,29.75,NW,320,2.3,2.3,54,0.00,CLR,CLR,0.00,WeatherDisplay:10.36,2013-03-16 09:28:00,
2013-03-16 05:34:00,34.3,18.9,29.75,NW,318,2.3,2.3,53,0.00,CLR,CLR,0.00,WeatherDisplay:10.36,2013-03-16 09:34:00,
2013-03-16 05:39:00,34.1,18.7,29.75,SSE,161,0.0,0.0,53,0.00,CLR,CLR,0.00,WeatherDisplay:10.36,2013-03-16 09:39:00,
2013-03-16 05:44:00,34.0,19.1,29.75,South,175,2.0,2.0,54,0.00,CLR,CLR,0.00,WeatherDisplay:10.36,2013-03-16 09:44:00,
2013-03-16 05:49:00,33.8,18.5,29.75,South,175,0.0,0.0,53,0.00,CLR,CLR,0.00,WeatherDisplay:10.36,2013-03-16 09:49:00,
2013-03-16 05:54:00,33.7,18.8,29.75,South,175,1.2,0.0,54,0.00,CLR,CLR,0.00,WeatherDisplay:10.36,2013-03-16 09:54:00,
2013-03-16 05:59:00,33.7,18.4,29.75,NNW,338,2.3,2.3,53,0.00,CLR,CLR,0.00,WeatherDisplay:10.36,2013-03-16 09:59:00,
2013-03-16 06:04:00,33.7,18.4,29.76,NNW,338,1.2,0.0,53,0.00,CLR,CLR,0.00,WeatherDisplay:10.36,2013-03-16 10:04:00,
2013-03-16 06:09:00,33.5,18.2,29.76,NNW,338,0.0,0.0,53,0.00,CLR,CLR,0.00,WeatherDisplay:10.36,2013-03-16 10:09:00,
2013-03-16 06:14:00,33.5,18.6,29.76,NNW,338,0.0,0.0,54,0.00,CLR,CLR,0.00,WeatherDisplay:10.36,2013-03-16 10:14:00,
2013-03-16 06:20:00,33.4,18.5,29.76,NNW,338,0.0,0.0,54,0.00,CLR,CLR,0.00,WeatherDisplay:10.36,2013-03-16 10:20:00,
2013-03-16 06:25:00,33.4,18.5,29.76,NNW,338,0.0,0.0,54,0.00,CLR,CLR,0.00,WeatherDisplay:10.36,2013-03-16 10:25:00,
2013-03-16 06:30:00,33.2,18.3,29.76,NNW,338,0.0,0.0,54,0.00,CLR,CLR,0.00,WeatherDisplay:10.36,2013-03-16 10:30:00,
2013-03-16 06:35:00,33.1,18.2,29.76,NNW,338,0.0,0.0,54,0.00,CLR,CLR,0.00,WeatherDisplay:10.36,2013-03-16 10:35:00,
2013-03-16 06:40:00,32.9,18.5,29.77,NNW,338,0.0,0.0,55,0.00,CLR,CLR,0.00,WeatherDisplay:10.36,2013-03-16 10:40:00,
2013-03-16 06:46:00,32.7,18.7,29.77,NNW,338,0.0,0.0,56,0.00,CLR,CLR,0.00,WeatherDisplay:10.36,2013-03-16 10:46:00,
2013-03-16 06:52:00,32.4,18.8,29.77,NNW,338,0.0,0.0,57,0.00,CLR,CLR,0.00,WeatherDisplay:10.36,2013-03-16 10:52:00,
2013-03-16 06:57:00,32.2,18.2,29.76,NNW,338,0.0,0.0,56,0.00,CLR,CLR,0.00,WeatherDisplay:10.36,2013-03-16 10:57:00,
2013-03-16 07:02:00,32.1,18.6,29.76,NNW,338,0.0,0.0,57,0.00,CLR,CLR,0.00,WeatherDisplay:10.36,2013-03-16 11:02:00,
2013-03-16 07:07:00,32.1,18.2,29.76,NNW,338,0.0,0.0,56,0.00,CLR,CLR,0.00,WeatherDisplay:10.36,2013-03-16 11:07:00,
2013-03-16 07:13:00,31.9,18.4,29.77,NNW,338,0.0,0.0,57,0.00,CLR,CLR,0.00,WeatherDisplay:10.36,2013-03-16 11:13:00,
2013-03-16 07:18:00,31.8,18.3,29.77,NNW,338,0.0,0.0,57,0.00,CLR,CLR,0.00,WeatherDisplay:10.36,2013-03-16 11:18:00,
2013-03-16 07:23:00,31.6,18.1,29.77,NNW,338,0.0,0.0,57,0.00,CLR,CLR,0.00,WeatherDisplay:10.36,2013-03-16 11:23:00,
2013-03-16 07:28:00,31.6,18.5,29.77,NNW,338,0.0,0.0,58,0.00,CLR,CLR,0.00,WeatherDisplay:10.36,2013-03-16 11:28:00,
2013-03-16 07:33:00,31.5,18.8,29.77,NNW,338,0.0,0.0,59,0.00,CLR,CLR,0.00,WeatherDisplay:10.36,2013-03-16 11:33:00,
2013-03-16 07:38:00,31.3,18.6,29.77,NNW,338,0.0,0.0,59,0.00,CLR,CLR,0.00,WeatherDisplay:10.36,2013-03-16 11:38:00,
2013-03-16 07:43:00,31.3,18.6,29.77,NNW,338,0.0,0.0,59,0.00,CLR,CLR,0.00,WeatherDisplay:10.36,2013-03-16 11:43:00,
2013-03-16 07:49:00,31.3,19.0,29.78,NNW,338,0.0,0.0,60,0.00,CLR,CLR,0.00,WeatherDisplay:10.36,2013-03-16 11:49:00,
2013-03-16 07:54:00,31.3,19.8,29.78,NNW,338,0.0,0.0,62,0.00,CLR,CLR,0.00,WeatherDisplay:10.36,2013-03-16 11:54:00,
2013-03-16 07:59:00,31.3,20.2,29.78,NNW,338,0.0,0.0,63,0.00,CLR,CLR,0.00,WeatherDisplay:10.36,2013-03-16 11:59:00,
2013-03-16 08:04:00,31.5,20.3,29.79,NNW,338,0.0,0.0,63,0.00,CLR,CLR,0.00,WeatherDisplay:10.36,2013-03-16 12:04:00,
2013-03-16 08:09:00,31.8,20.3,29.79,NNW,338,0.0,0.0,62,0.00,CLR,CLR,0.00,WeatherDisplay:10.36,2013-03-16 12:09:00,
2013-03-16 08:14:00,32.1,20.9,29.78,NNW,338,0.0,0.0,63,0.00,CLR,CLR,0.00,WeatherDisplay:10.36,2013-03-16 12:14:00,
2013-03-16 08:19:00,32.4,20.8,29.79,NNW,338,0.0,0.0,62,0.00,CLR,CLR,0.00,WeatherDisplay:10.36,2013-03-16 12:19:00,
2013-03-16 08:24:00,32.7,20.3,29.79,NNW,338,0.0,0.0,60,0.00,CLR,CLR,0.00,WeatherDisplay:10.36,2013-03-16 12:24:00,
2013-03-16 08:29:00,32.9,19.7,29.79,NNW,338,1.0,1.0,58,0.00,CLR,CLR,0.00,WeatherDisplay:10.36,2013-03-16 12:29:00,
2013-03-16 08:34:00,33.2,19.2,29.79,NNW,338,1.2,0.0,56,0.00,CLR,CLR,0.00,WeatherDisplay:10.36,2013-03-16 12:34:00,
2013-03-16 08:39:00,33.5,19.0,29.79,NNW,338,1.0,1.0,55,0.00,CLR,CLR,0.00,WeatherDisplay:10.36,2013-03-16 12:39:00,
2013-03-16 08:44:00,33.7,18.8,29.79,NNW,338,1.2,0.0,54,0.00,CLR,CLR,0.00,WeatherDisplay:10.36,2013-03-16 12:44:00,
2013-03-16 08:50:00,33.8,18.9,29.79,NNW,338,0.0,0.0,54,0.00,CLR,CLR,0.00,WeatherDisplay:10.36,2013-03-16 12:50:00,
2013-03-16 08:55:00,33.8,18.5,29.79,NNW,338,0.0,2.0,53,0.00,CLR,CLR,0.00,WeatherDisplay:10.36,2013-03-16 12:55:00,
2013-03-16 09:00:00,34.0,17.7,29.79,NNW,338,1.0,3.0,51,0.00,CLR,CLR,0.00,WeatherDisplay:10.36,2013-03-16 13:00:00,
2013-03-16 09:05:00,34.0,17.3,29.79,NNW,329,0.0,4.0,50,0.00,CLR,CLR,0.00,WeatherDisplay:10.36,2013-03-16 13:05:00,
2013-03-16 09:10:00,34.0,17.7,29.79,NW,324,1.0,2.0,51,0.00,CLR,CLR,0.00,WeatherDisplay:10.36,2013-03-16 13:10:00,
2013-03-16 09:15:00,34.3,18.0,29.78,NW,318,0.0,0.0,51,0.00,CLR,CLR,0.00,WeatherDisplay:10.36,2013-03-16 13:15:00,
2013-03-16 09:20:00,34.4,17.2,29.78,NW,319,2.0,2.0,49,0.00,CLR,CLR,0.00,WeatherDisplay:10.36,2013-03-16 13:20:00,
2013-03-16 09:26:00,34.4,18.1,29.78,NW,319,0.0,0.0,51,0.00,CLR,CLR,0.00,WeatherDisplay:10.36,2013-03-16 13:26:00,
2013-03-16 09:31:00,34.6,17.8,29.78,NW,319,0.0,0.0,50,0.00,CLR,CLR,0.00,WeatherDisplay:10.36,2013-03-16 13:31:00,
2013-03-16 09:37:00,34.6,17.4,29.77,NW,319,0.0,0.0,49,0.00,CLR,CLR,0.00,WeatherDisplay:10.36,2013-03-16 13:37:00,
2013-03-16 09:42:00,34.6,17.4,29.77,NW,314,1.2,0.0,49,0.00,CLR,CLR,0.00,WeatherDisplay:10.36,2013-03-16 13:42:00,
2013-03-16 09:47:00,34.6,17.4,29.77,NW,314,0.0,0.0,49,0.00,CLR,CLR,0.00,WeatherDisplay:10.36,2013-03-16 13:47:00,
2013-03-16 09:52:00,34.7,17.5,29.77,NW,314,0.0,0.0,49,0.00,CLR,CLR,0.00,WeatherDisplay:10.36,2013-03-16 13:52:00,
2013-03-16 09:57:00,35.0,17.3,29.78,NW,314,2.3,2.3,48,0.00,CLR,CLR,0.00,WeatherDisplay:10.36,2013-03-16 13:57:00,
2013-03-16 10:02:00,35.0,17.3,29.78,NW,314,1.2,0.0,48,0.00,CLR,CLR,0.00,WeatherDisplay:10.36,2013-03-16 14:02:00,
2013-03-16 10:07:00,35.2,17.4,29.77,NW,314,1.2,0.0,48,0.00,CLR,CLR,0.00,WeatherDisplay:10.36,2013-03-16 14:07:00,
2013-03-16 10:12:00,35.5,17.7,29.77,NW,314,1.2,1.2,48,0.00,CLR,CLR,0.00,WeatherDisplay:10.36,2013-03-16 14:12:00,
2013-03-16 10:18:00,35.6,17.8,29.77,NW,314,2.3,0.0,48,0.00,CLR,CLR,0.00,WeatherDisplay:10.36,2013-03-16 14:18:00,
2013-03-16 10:23:00,35.8,18.0,29.78,NW,314,1.2,0.0,48,0.00,CLR,CLR,0.00,WeatherDisplay:10.36,2013-03-16 14:23:00,
2013-03-16 10:28:00,35.8,17.5,29.77,NW,314,0.0,0.0,47,0.00,CLR,CLR,0.00,WeatherDisplay:10.36,2013-03-16 14:28:00,
2013-03-16 10:33:00,35.6,16.8,29.77,North,358,0.0,0.0,46,0.00,CLR,CLR,0.00,WeatherDisplay:10.36,2013-03-16 14:33:00,
2013-03-16 10:39:00,35.6,17.3,29.77,North,358,0.0,0.0,47,0.00,CLR,CLR,0.00,WeatherDisplay:10.36,2013-03-16 14:39:00,
2013-03-16 10:44:00,35.8,17.5,29.77,North,356,0.0,0.0,47,0.00,CLR,CLR,0.00,WeatherDisplay:10.36,2013-03-16 14:44:00,
2013-03-16 10:49:00,35.9,17.6,29.76,North,356,0.0,0.0,47,0.00,CLR,CLR,0.00,WeatherDisplay:10.36,2013-03-16 14:49:00,
2013-03-16 10:54:00,35.9,17.6,29.77,North,356,2.3,2.3,47,0.00,CLR,CLR,0.00,WeatherDisplay:10.36,2013-03-16 14:54:00,
2013-03-16 10:59:00,35.9,17.6,29.77,North,356,2.3,2.3,47,0.00,CLR,CLR,0.00,WeatherDisplay:10.36,2013-03-16 14:59:00,
2013-03-16 11:05:00,35.9,17.1,29.77,North,356,0.0,0.0,46,0.00,CLR,CLR,0.00,WeatherDisplay:10.36,2013-03-16 15:05:00,
2013-03-16 11:10:00,35.9,18.1,29.77,North,356,0.0,0.0,48,0.00,CLR,CLR,0.00,WeatherDisplay:10.36,2013-03-16 15:10:00,
2013-03-16 11:15:00,35.9,18.6,29.77,North,356,1.0,0.0,49,0.00,CLR,CLR,0.00,WeatherDisplay:10.36,2013-03-16 15:15:00,
2013-03-16 11:20:00,36.0,17.2,29.77,North,356,0.0,0.0,46,0.00,CLR,CLR,0.00,WeatherDisplay:10.36,2013-03-16 15:20:00,
2013-03-16 11:25:00,36.0,17.7,29.77,North,356,0.0,0.0,47,0.00,CLR,CLR,0.00,WeatherDisplay:10.36,2013-03-16 15:25:00,
2013-03-16 11:30:00,36.2,17.4,29.77,North,356,1.2,0.0,46,0.00,CLR,CLR,0.00,WeatherDisplay:10.36,2013-03-16 15:30:00,
2013-03-16 11:35:00,36.2,17.4,29.77,North,356,0.0,0.0,46,0.00,CLR,CLR,0.00,WeatherDisplay:10.36,2013-03-16 15:35:00,
2013-03-16 11:41:00,36.0,19.6,29.77,SW,219,3.5,3.5,51,0.00,CLR,CLR,0.00,WeatherDisplay:10.36,2013-03-16 15:41:00,
2013-03-16 11:46:00,35.8,19.0,29.77,SSW,194,0.0,0.0,50,0.00,CLR,CLR,0.00,WeatherDisplay:10.36,2013-03-16 15:46:00,
2013-03-16 11:51:00,35.9,19.0,29.77,SE,143,3.5,3.5,50,0.00,CLR,CLR,0.00,WeatherDisplay:10.36,2013-03-16 15:51:00,
2013-03-16 11:57:00,35.8,18.0,29.76,SE,146,3.5,3.5,48,0.00,CLR,CLR,0.00,WeatherDisplay:10.36,2013-03-16 15:57:00,
2013-03-16 12:02:00,35.8,18.0,29.76,SE,146,1.2,0.0,48,0.00,CLR,CLR,0.00,WeatherDisplay:10.36,2013-03-16 16:02:00,
2013-03-16 12:07:00,36.0,18.2,29.76,SE,146,0.0,0.0,48,0.00,CLR,CLR,0.00,WeatherDisplay:10.36,2013-03-16 16:07:00,
2013-03-16 12:12:00,36.3,18.0,29.75,SW,227,0.0,0.0,47,0.00,CLR,CLR,0.00,WeatherDisplay:10.36,2013-03-16 16:12:00,
2013-03-16 12:17:00,36.5,18.6,29.75,SE,138,3.5,3.5,48,0.00,CLR,CLR,0.00,WeatherDisplay:10.36,2013-03-16 16:17:00,
2013-03-16 12:22:00,36.5,18.6,29.75,ESE,102,1.2,0.0,48,0.00,CLR,CLR,0.00,WeatherDisplay:10.36,2013-03-16 16:22:00,
2013-03-16 12:27:00,36.6,18.7,29.75,ESE,111,3.5,3.5,48,0.00,CLR,CLR,0.00,WeatherDisplay:10.36,2013-03-16 16:27:00,
2013-03-16 12:32:00,36.6,18.7,29.75,SE,127,4.6,4.6,48,0.00,CLR,CLR,0.00,WeatherDisplay:10.36,2013-03-16 16:32:00,
2013-03-16 12:37:00,36.3,18.9,29.75,ESE,122,3.5,3.5,49,0.00,CLR,CLR,0.00,WeatherDisplay:10.36,2013-03-16 16:37:00,
2013-03-16 12:42:00,36.3,20.3,29.75,ESE,123,1.2,0.0,52,0.00,CLR,CLR,0.00,WeatherDisplay:10.36,2013-03-16 16:42:00,
2013-03-16 12:47:00,36.3,21.2,29.75,ESE,123,0.0,0.1,54,0.00,CLR,CLR,0.00,WeatherDisplay:10.36,2013-03-16 16:47:00,
2013-03-16 12:52:00,36.3,20.8,29.75,ESE,123,2.0,2.0,53,0.00,CLR,CLR,0.00,WeatherDisplay:10.36,2013-03-16 16:52:00,
2013-03-16 12:58:00,36.2,21.1,29.75,SE,129,3.5,3.5,54,0.00,CLR,CLR,0.00,WeatherDisplay:10.36,2013-03-16 16:58:00,
2013-03-16 13:03:00,36.0,22.2,29.75,SE,129,3.5,3.5,57,0.00,CLR,CLR,0.00,WeatherDisplay:10.36,2013-03-16 17:03:00,
2013-03-16 13:08:00,35.2,22.3,29.75,SSE,149,3.5,3.5,59,0.00,CLR,CLR,0.00,WeatherDisplay:10.36,2013-03-16 17:08:00,
2013-03-16 13:13:00,34.7,22.6,29.75,SSE,149,0.0,0.0,61,0.00,CLR,CLR,0.00,WeatherDisplay:10.36,2013-03-16 17:13:00,
2013-03-16 13:18:00,34.7,23.4,29.75,SSE,149,0.0,0.0,63,0.00,CLR,CLR,0.00,WeatherDisplay:10.36,2013-03-16 17:18:00,
2013-03-16 13:23:00,34.6,24.0,29.75,SW,235,4.6,4.6,65,0.00,CLR,CLR,0.00,WeatherDisplay:10.36,2013-03-16 17:23:00,
2013-03-16 13:29:00,34.1,23.9,29.75,WSW,239,3.5,3.5,66,0.00,CLR,CLR,0.00,WeatherDisplay:10.36,2013-03-16 17:29:00,
2013-03-16 13:34:00,33.7,24.3,29.75,SW,215,2.3,2.3,68,0.00,CLR,CLR,0.00,WeatherDisplay:10.36,2013-03-16 17:34:00,
2013-03-16 13:39:00,33.4,25.0,29.75,South,181,2.3,2.3,71,0.00,CLR,CLR,0.00,WeatherDisplay:10.36,2013-03-16 17:39:00,
2013-03-16 13:44:00,33.2,25.5,29.75,South,181,1.2,0.0,73,0.00,CLR,CLR,0.00,WeatherDisplay:10.36,2013-03-16 17:44:00,
2013-03-16 13:49:00,32.9,25.8,29.75,South,181,1.0,1.0,75,0.00,CLR,CLR,0.00,WeatherDisplay:10.36,2013-03-16 17:49:00,
2013-03-16 13:55:00,32.8,26.4,29.75,South,181,0.0,0.0,77,0.00,CLR,CLR,0.00,WeatherDisplay:10.36,2013-03-16 17:55:00,
2013-03-16 14:00:00,32.5,26.7,29.75,South,181,0.0,0.0,79,0.00,CLR,CLR,0.00,WeatherDisplay:10.36,2013-03-16 18:00:00,
2013-03-16 14:05:00,32.2,26.7,29.75,South,181,0.0,0.0,80,0.00,CLR,CLR,0.00,WeatherDisplay:10.36,2013-03-16 18:05:00,
2013-03-16 14:10:00,32.1,26.9,29.76,South,181,0.0,2.0,81,0.00,CLR,CLR,0.00,WeatherDisplay:10.36,2013-03-16 18:10:00,
2013-03-16 14:27:00,31.9,27.6,29.75,South,181,0.0,0.0,84,0.00,CLR,CLR,0.00,WeatherDisplay:10.36,2013-03-16 18:27:00,
2013-03-16 14:32:00,31.9,27.9,29.75,South,181,0.0,0.0,85,0.00,CLR,CLR,0.00,WeatherDisplay:10.36,2013-03-16 18:32:00,
2013-03-16 14:37:00,32.1,28.1,29.74,South,181,0.0,0.0,85,0.00,CLR,CLR,0.00,WeatherDisplay:10.36,2013-03-16 18:37:00,
2013-03-16 14:42:00,31.9,27.9,29.74,South,181,0.0,0.0,85,0.00,CLR,CLR,0.00,WeatherDisplay:10.36,2013-03-16 18:42:00,
2013-03-16 14:48:00,32.1,28.4,29.74,South,181,0.0,0.0,86,0.00,CLR,CLR,0.00,WeatherDisplay:10.36,2013-03-16 18:48:00,
2013-03-16 14:53:00,32.1,28.4,29.74,South,181,0.0,0.0,86,0.00,CLR,CLR,0.00,WeatherDisplay:10.36,2013-03-16 18:53:00,
2013-03-16 14:58:00,32.1,28.4,29.73,South,181,0.0,0.0,86,0.01,RA,RA,0.01,WeatherDisplay:10.36,2013-03-16 18:58:00,
2013-03-16 15:03:00,32.2,28.5,29.72,South,181,0.0,0.0,86,0.01,RA,RA,0.01,WeatherDisplay:10.36,2013-03-16 19:03:00,
2013-03-16 15:08:00,32.4,28.7,29.73,South,181,0.0,0.0,86,0.01,CLR,CLR,0.01,WeatherDisplay:10.36,2013-03-16 19:08:00,
2013-03-16 15:13:00,32.4,28.7,29.73,South,181,0.0,0.0,86,0.01,CLR,CLR,0.01,WeatherDisplay:10.36,2013-03-16 19:13:00,
2013-03-16 15:18:00,32.5,28.8,29.73,South,181,0.0,0.0,86,0.02,RA,RA,0.02,WeatherDisplay:10.36,2013-03-16 19:18:00,
2013-03-16 15:23:00,32.5,28.8,29.73,South,181,0.0,0.0,86,0.02,RA,RA,0.02,WeatherDisplay:10.36,2013-03-16 19:23:00,
2013-03-16 15:28:00,32.5,28.8,29.73,South,181,0.0,0.0,86,0.02,,,0.03,WeatherDisplay:10.36,2013-03-16 19:28:00,
2013-03-16 15:34:00,32.4,28.7,29.73,South,181,0.0,0.0,86,0.03,RA,RA,0.03,WeatherDisplay:10.36,2013-03-16 19:34:00,
2013-03-16 15:39:00,32.2,28.5,29.72,South,181,0.0,0.0,86,0.03,,,0.03,WeatherDisplay:10.36,2013-03-16 19:39:00,
2013-03-16 15:44:00,32.2,28.5,29.72,South,181,0.0,0.0,86,0.03,CLR,CLR,0.03,WeatherDisplay:10.36,2013-03-16 19:44:00,
2013-03-16 15:49:00,32.4,28.7,29.72,South,181,0.0,0.0,86,0.03,CLR,CLR,0.03,WeatherDisplay:10.36,2013-03-16 19:49:00,
2013-03-16 15:54:00,32.4,28.7,29.72,South,181,0.0,0.0,86,0.02,CLR,CLR,0.03,WeatherDisplay:10.36,2013-03-16 19:54:00,
2013-03-16 15:59:00,32.5,29.1,29.72,South,181,0.0,0.0,87,0.03,RA,RA,0.04,WeatherDisplay:10.36,2013-03-16 19:59:00,
2013-03-16 16:04:00,32.5,28.8,29.72,South,181,0.0,0.0,86,0.03,RA,RA,0.04,WeatherDisplay:10.36,2013-03-16 20:04:00,
2013-03-16 16:10:00,32.4,28.7,29.72,SSW,193,0.0,0.0,86,0.03,CLR,CLR,0.04,WeatherDisplay:10.36,2013-03-16 20:10:00,
2013-03-16 16:15:00,32.1,28.4,29.71,SSW,193,0.0,0.0,86,0.03,CLR,CLR,0.04,WeatherDisplay:10.36,2013-03-16 20:15:00,
2013-03-16 16:20:00,32.1,28.4,29.72,SSW,193,0.0,0.0,86,0.00,,,0.04,WeatherDisplay:10.36,2013-03-16 20:20:00,
2013-03-16 16:25:00,32.1,28.7,29.71,SSW,193,0.0,0.0,87,0.02,CLR,CLR,0.04,WeatherDisplay:10.36,2013-03-16 20:25:00,
2013-03-16 16:30:00,32.1,28.7,29.71,SSW,193,0.0,0.0,87,0.02,RA,RA,0.05,WeatherDisplay:10.36,2013-03-16 20:30:00,
2013-03-16 16:35:00,32.2,28.8,29.71,SSW,193,0.0,0.0,87,0.02,RA,RA,0.05,WeatherDisplay:10.36,2013-03-16 20:35:00,
2013-03-16 16:40:00,32.2,28.8,29.71,SSW,193,0.0,0.0,87,0.02,CLR,CLR,0.05,WeatherDisplay:10.36,2013-03-16 20:40:00,
2013-03-16 16:45:00,32.5,29.1,29.71,SSW,193,0.0,0.0,87,0.02,CLR,CLR,0.05,WeatherDisplay:10.36,2013-03-16 20:45:00,
2013-03-16 16:51:00,32.5,29.1,29.71,SSW,193,0.0,0.0,87,0.02,CLR,CLR,0.05,WeatherDisplay:10.36,2013-03-16 20:51:00,
2013-03-16 16:57:00,32.7,29.3,29.72,SSW,193,0.0,0.0,87,0.01,CLR,CLR,0.05,WeatherDisplay:10.36,2013-03-16 20:57:00,
2013-03-16 17:02:00,32.7,29.3,29.72,SSW,193,0.0,0.0,87,0.01,CLR,CLR,0.05,WeatherDisplay:10.36,2013-03-16 21:02:00,
2013-03-16 17:07:00,32.7,29.3,29.72,SSW,193,0.0,0.0,87,0.01,CLR,CLR,0.05,WeatherDisplay:10.36,2013-03-16 21:07:00,
2013-03-16 17:12:00,32.7,29.3,29.71,SSW,193,0.0,0.0,87,0.01,CLR,CLR,0.05,WeatherDisplay:10.36,2013-03-16 21:12:00,
2013-03-16 17:17:00,32.7,29.3,29.72,SSW,193,0.0,0.0,87,0.01,CLR,CLR,0.05,WeatherDisplay:10.36,2013-03-16 21:17:00,
2013-03-16 17:22:00,32.5,29.1,29.72,SSW,193,0.0,0.0,87,0.01,CLR,CLR,0.05,WeatherDisplay:10.36,2013-03-16 21:22:00,
2013-03-16 17:28:00,32.5,29.1,29.72,SSW,193,0.0,0.0,87,0.01,RA,RA,0.06,WeatherDisplay:10.36,2013-03-16 21:28:00,
2013-03-16 17:33:00,32.5,29.1,29.72,SSW,193,0.0,0.0,87,0.01,RA,RA,0.06,WeatherDisplay:10.36,2013-03-16 21:33:00,
2013-03-16 17:38:00,32.5,29.1,29.72,SSW,193,0.0,0.0,87,0.01,,,0.06,WeatherDisplay:10.36,2013-03-16 21:38:00,
2013-03-16 17:43:00,32.5,29.1,29.72,SSW,193,0.0,0.0,87,0.01,CLR,CLR,0.06,WeatherDisplay:10.36,2013-03-16 21:43:00,
2013-03-16 17:48:00,32.7,29.3,29.72,SSW,193,0.0,0.0,87,0.01,CLR,CLR,0.06,WeatherDisplay:10.36,2013-03-16 21:48:00,
2013-03-16 17:53:00,32.5,29.1,29.72,SSW,193,0.0,0.0,87,0.01,CLR,CLR,0.06,WeatherDisplay:10.36,2013-03-16 21:53:00,
2013-03-16 17:59:00,32.5,29.1,29.72,SSW,193,0.0,0.0,87,0.01,CLR,CLR,0.06,WeatherDisplay:10.36,2013-03-16 21:59:00,
2013-03-16 18:03:00,32.5,29.1,29.72,SSW,193,0.0,0.0,87,0.01,CLR,CLR,0.06,WeatherDisplay:10.36,2013-03-16 22:03:00,
2013-03-16 18:09:00,32.5,29.1,29.72,SSW,193,0.0,0.0,87,0.01,CLR,CLR,0.06,WeatherDisplay:10.36,2013-03-16 22:09:00,
2013-03-16 18:14:00,32.5,29.1,29.73,SSW,193,0.0,0.0,87,0.01,CLR,CLR,0.06,WeatherDisplay:10.36,2013-03-16 22:14:00,
2013-03-16 18:19:00,32.5,29.1,29.72,SSW,193,0.0,0.0,87,0.01,CLR,CLR,0.06,WeatherDisplay:10.36,2013-03-16 22:19:00,
2013-03-16 18:24:00,32.5,29.3,29.72,SSW,193,0.0,0.0,88,0.01,CLR,CLR,0.06,WeatherDisplay:10.36,2013-03-16 22:24:00,
2013-03-16 18:29:00,32.5,29.3,29.72,SSW,193,0.0,0.0,88,0.00,CLR,CLR,0.06,WeatherDisplay:10.36,2013-03-16 22:29:00,
2013-03-16 18:34:00,32.4,29.2,29.72,SSW,193,0.0,0.0,88,0.00,CLR,CLR,0.06,WeatherDisplay:10.36,2013-03-16 22:34:00,
2013-03-16 18:39:00,32.4,29.2,29.72,SSW,193,0.0,0.0,88,0.00,CLR,CLR,0.06,WeatherDisplay:10.36,2013-03-16 22:39:00,
2013-03-16 18:44:00,32.4,29.2,29.73,SSW,193,0.0,0.0,88,0.00,CLR,CLR,0.06,WeatherDisplay:10.36,2013-03-16 22:44:00,
2013-03-16 18:49:00,32.4,29.2,29.73,SSW,193,0.0,0.0,88,0.00,CLR,CLR,0.06,WeatherDisplay:10.36,2013-03-16 22:49:00,
2013-03-16 18:54:00,32.4,29.2,29.73,SSW,193,0.0,0.0,88,0.00,CLR,CLR,0.06,WeatherDisplay:10.36,2013-03-16 22:54:00,
2013-03-16 19:00:00,32.4,29.2,29.74,SSW,193,0.0,0.0,88,0.00,CLR,CLR,0.06,WeatherDisplay:10.36,2013-03-16 23:00:00,
2013-03-16 19:05:00,32.2,29.0,29.74,SSW,205,0.0,0.0,88,0.00,CLR,CLR,0.06,WeatherDisplay:10.36,2013-03-16 23:05:00,
2013-03-16 19:10:00,32.2,29.0,29.74,SW,222,0.0,0.0,88,0.00,CLR,CLR,0.06,WeatherDisplay:10.36,2013-03-16 23:10:00,
2013-03-16 19:15:00,32.2,29.3,29.74,SW,226,0.0,0.0,89,0.00,CLR,CLR,0.06,WeatherDisplay:10.36,2013-03-16 23:15:00,
2013-03-16 19:20:00,32.2,29.3,29.74,SW,231,0.0,0.0,89,0.00,CLR,CLR,0.06,WeatherDisplay:10.36,2013-03-16 23:20:00,
2013-03-16 19:25:00,32.2,29.3,29.74,SW,233,0.0,0.0,89,0.00,CLR,CLR,0.06,WeatherDisplay:10.36,2013-03-16 23:25:00,
2013-03-16 19:30:00,32.1,29.2,29.74,SW,233,0.0,0.0,89,0.00,CLR,CLR,0.06,WeatherDisplay:10.36,2013-03-16 23:30:00,
2013-03-16 19:36:00,32.1,29.2,29.75,SW,233,0.0,0.0,89,0.00,CLR,CLR,0.06,WeatherDisplay:10.36,2013-03-16 23:36:00,
2013-03-16 19:41:00,32.1,29.2,29.75,SW,233,0.0,0.0,89,0.00,CLR,CLR,0.06,WeatherDisplay:10.36,2013-03-16 23:41:00,
2013-03-16 19:46:00,32.1,29.2,29.76,SW,233,0.0,0.0,89,0.00,CLR,CLR,0.06,WeatherDisplay:10.36,2013-03-16 23:46:00,
2013-03-16 19:51:00,32.1,29.2,29.76,SW,233,0.0,0.0,89,0.00,CLR,CLR,0.06,WeatherDisplay:10.36,2013-03-16 23:51:00,
2013-03-16 19:57:00,32.1,29.2,29.77,SW,233,0.0,0.0,89,0.00,CLR,CLR,0.06,WeatherDisplay:10.36,2013-03-16 23:57:00,
2013-03-16 20:02:00,32.1,29.2,29.77,SW,233,0.0,0.0,89,0.00,CLR,CLR,0.06,WeatherDisplay:10.36,2013-03-17 00:02:00,
2013-03-16 20:07:00,32.1,29.2,29.76,SW,233,0.0,0.0,89,0.00,CLR,CLR,0.06,WeatherDisplay:10.36,2013-03-17 00:07:00,
2013-03-16 20:13:00,32.1,29.2,29.76,SW,233,0.0,0.0,89,0.00,CLR,CLR,0.06,WeatherDisplay:10.36,2013-03-17 00:13:00,
2013-03-16 20:18:00,32.2,29.3,29.77,SW,233,0.0,0.0,89,0.00,CLR,CLR,0.06,WeatherDisplay:10.36,2013-03-17 00:18:00,
2013-03-16 20:23:00,32.2,29.3,29.77,SW,233,0.0,0.0,89,0.00,CLR,CLR,0.06,WeatherDisplay:10.36,2013-03-17 00:23:00,
2013-03-16 20:28:00,32.2,29.3,29.77,SW,233,0.0,0.0,89,0.00,CLR,CLR,0.06,WeatherDisplay:10.36,2013-03-17 00:28:00,
2013-03-16 20:33:00,32.2,29.3,29.77,SW,233,0.0,0.0,89,0.00,CLR,CLR,0.06,WeatherDisplay:10.36,2013-03-17 00:33:00,
2013-03-16 20:38:00,32.2,29.3,29.77,SW,233,0.0,0.0,89,0.00,CLR,CLR,0.06,WeatherDisplay:10.36,2013-03-17 00:38:00,
2013-03-16 20:44:00,32.2,29.3,29.78,SW,233,0.0,0.0,89,0.00,CLR,CLR,0.06,WeatherDisplay:10.36,2013-03-17 00:44:00,
2013-03-16 20:49:00,32.2,29.3,29.79,SW,233,0.0,0.0,89,0.00,CLR,CLR,0.06,WeatherDisplay:10.36,2013-03-17 00:49:00,
2013-03-16 20:54:00,32.2,29.3,29.78,SW,233,0.0,0.0,89,0.00,CLR,CLR,0.06,WeatherDisplay:10.36,2013-03-17 00:54:00,
2013-03-16 20:59:00,32.2,29.3,29.78,SW,233,0.0,0.0,89,0.00,CLR,CLR,0.06,WeatherDisplay:10.36,2013-03-17 00:59:00,
2013-03-16 21:04:00,32.2,29.3,29.79,SW,233,0.0,0.0,89,0.00,CLR,CLR,0.06,WeatherDisplay:10.36,2013-03-17 01:04:00,
2013-03-16 21:09:00,32.2,29.3,29.79,SW,233,0.0,0.0,89,0.00,CLR,CLR,0.06,WeatherDisplay:10.36,2013-03-17 01:09:00,
2013-03-16 21:14:00,32.2,29.3,29.79,SW,233,0.0,0.0,89,0.00,CLR,CLR,0.06,WeatherDisplay:10.36,2013-03-17 01:14:00,
2013-03-16 21:19:00,32.2,29.3,29.79,SW,233,0.0,0.0,89,0.00,CLR,CLR,0.06,WeatherDisplay:10.36,2013-03-17 01:19:00,
2013-03-16 21:24:00,32.2,29.3,29.80,SW,233,0.0,0.0,89,0.00,CLR,CLR,0.06,WeatherDisplay:10.36,2013-03-17 01:24:00,
2013-03-16 21:29:00,32.2,29.3,29.80,SW,233,0.0,0.0,89,0.00,CLR,CLR,0.06,WeatherDisplay:10.36,2013-03-17 01:29:00,
2013-03-16 21:35:00,32.2,29.3,29.80,SW,233,0.0,0.0,89,0.00,CLR,CLR,0.06,WeatherDisplay:10.36,2013-03-17 01:35:00,
2013-03-16 21:40:00,32.2,29.3,29.80,SW,233,0.0,0.0,89,0.00,CLR,CLR,0.06,WeatherDisplay:10.36,2013-03-17 01:40:00,
2013-03-16 21:45:00,32.2,29.3,29.80,SW,233,0.0,0.0,89,0.00,CLR,CLR,0.06,WeatherDisplay:10.36,2013-03-17 01:45:00,
2013-03-16 21:50:00,32.2,29.3,29.80,SW,233,0.0,0.0,89,0.00,CLR,CLR,0.06,WeatherDisplay:10.36,2013-03-17 01:50:00,
2013-03-16 21:55:00,32.2,29.3,29.80,SW,233,0.0,0.0,89,0.00,CLR,CLR,0.06,WeatherDisplay:10.36,2013-03-17 01:55:00,
2013-03-16 22:01:00,32.2,29.3,29.80,SW,233,0.0,0.0,89,0.00,CLR,CLR,0.06,WeatherDisplay:10.36,2013-03-17 02:01:00,
2013-03-16 22:06:00,32.2,29.3,29.81,SW,233,0.0,0.0,89,0.00,CLR,CLR,0.06,WeatherDisplay:10.36,2013-03-17 02:06:00,
2013-03-16 22:12:00,32.2,29.3,29.81,SW,233,0.0,0.0,89,0.00,CLR,CLR,0.06,WeatherDisplay:10.36,2013-03-17 02:12:00,
2013-03-16 22:17:00,32.2,29.3,29.81,SW,233,0.0,0.0,89,0.00,CLR,CLR,0.06,WeatherDisplay:10.36,2013-03-17 02:17:00,
2013-03-16 22:22:00,32.2,29.3,29.81,SW,233,0.0,0.0,89,0.00,CLR,CLR,0.06,WeatherDisplay:10.36,2013-03-17 02:22:00,
2013-03-16 22:27:00,32.2,29.3,29.82,SW,233,0.0,0.0,89,0.00,CLR,CLR,0.06,WeatherDisplay:10.36,2013-03-17 02:27:00,
2013-03-16 22:32:00,32.2,29.0,29.82,SW,233,0.0,0.0,88,0.00,CLR,CLR,0.06,WeatherDisplay:10.36,2013-03-17 02:32:00,
2013-03-16 22:38:00,32.1,28.9,29.82,SW,233,0.0,0.0,88,0.00,CLR,CLR,0.06,WeatherDisplay:10.36,2013-03-17 02:38:00,
2013-03-16 22:43:00,32.1,28.9,29.82,SW,233,0.0,0.0,88,0.00,CLR,CLR,0.06,WeatherDisplay:10.36,2013-03-17 02:43:00,
2013-03-16 22:48:00,32.1,28.9,29.82,SW,233,0.0,0.0,88,0.00,CLR,CLR,0.06,WeatherDisplay:10.36,2013-03-17 02:48:00,
2013-03-16 22:54:00,32.1,28.9,29.83,SW,233,0.0,0.0,88,0.00,CLR,CLR,0.06,WeatherDisplay:10.36,2013-03-17 02:54:00,
2013-03-16 22:59:00,32.1,28.9,29.82,SW,233,0.0,0.0,88,0.00,CLR,CLR,0.06,WeatherDisplay:10.36,2013-03-17 02:59:00,
2013-03-16 23:04:00,32.1,28.9,29.82,SW,233,0.0,0.0,88,0.00,CLR,CLR,0.06,WeatherDisplay:10.36,2013-03-17 03:04:00,
2013-03-16 23:09:00,31.9,28.8,29.83,SW,233,0.0,0.0,88,0.00,CLR,CLR,0.06,WeatherDisplay:10.36,2013-03-17 03:09:00,
2013-03-16 23:14:00,31.9,28.8,29.83,SW,233,0.0,0.0,88,0.00,CLR,CLR,0.06,WeatherDisplay:10.36,2013-03-17 03:14:00,
2013-03-16 23:20:00,31.9,28.8,29.83,SW,233,0.0,0.0,88,0.00,CLR,CLR,0.06,WeatherDisplay:10.36,2013-03-17 03:20:00,
2013-03-16 23:25:00,31.9,28.8,29.83,SW,233,0.0,0.0,88,0.00,CLR,CLR,0.06,WeatherDisplay:10.36,2013-03-17 03:25:00,
2013-03-16 23:30:00,31.9,28.8,29.83,SW,233,0.0,0.0,88,0.00,CLR,CLR,0.06,WeatherDisplay:10.36,2013-03-17 03:30:00,
2013-03-16 23:35:00,31.9,28.8,29.83,SW,233,0.0,0.0,88,0.00,CLR,CLR,0.06,WeatherDisplay:10.36,2013-03-17 03:35:00,
2013-03-16 23:40:00,32.1,28.9,29.83,SW,233,0.0,0.0,88,0.00,CLR,CLR,0.06,WeatherDisplay:10.36,2013-03-17 03:40:00,
2013-03-16 23:45:00,32.1,28.9,29.84,SW,233,0.0,0.0,88,0.00,CLR,CLR,0.06,WeatherDisplay:10.36,2013-03-17 03:45:00,
2013-03-16 23:50:00,32.1,28.9,29.84,SW,233,0.0,0.0,88,0.00,CLR,CLR,0.06,WeatherDisplay:10.36,2013-03-17 03:50:00,
2013-03-16 23:55:00,32.1,28.9,29.84,SW,233,0.0,0.0,88,0.00,CLR,CLR,0.06,WeatherDisplay:10.36,2013-03-17 03:55:00,